User: anonymous   Login
Location: Unspecified
(0.0000°N, 0.0000°E)
Time: 14:35:35
(UTC+01:00)
Language:

ARIANE 5 R/B - Orbit

View from above orbital plane
View from above orbital plane
View from above satellite
View from above satellite

Ground track
Ground track

The orbit data is extracted from the following two-line orbital elements,

1 29646U 06054D   17081.78716819 +.00001039 +00000-0 +27681-3 0  9996
2 29646 003.1014 001.2188 7097595 241.6878 031.0776 02.50949530089565
Epoch (UTC): 22 March 2017 18:53:31
Eccentricity: 0.7097595
inclination: 3.1014°
perigee height: 261 km
apogee height: 32731 km
right ascension of ascending node: 1.2188°
argument of perigee: 241.6878°
revolutions per day: 2.50949530
mean anomaly at epoch: 31.0776°
orbit number at epoch: 8956

The dashed part of the orbit path shows where the satellite is in the earth's shadow,  

DLR